Tracking 31027 objects as of 19-Jul-2025
HD Live streaming from Space Station
objects crossing your sky now

YAOGAN-36 02C

Track YAOGAN-36 02C now!
10-day predictions


NORAD ID: 54045
Int'l Code: 2022-133D
Perigee: 475.6 km
Apogee: 494.9 km
Inclination: 35.0 °
Period: 94.2 minutes
Semi major axis: 6856 km
RCS: Unknown
Launch date: October 14, 2022
Source: People's Republic of China (PRC)
Launch site: Xichang Space Center, China (XSC)
Your satellite tracking list
FENGYUN 1C DEB
Track 1 satellite(s)




NASA's NSSDC Master Catalog

Two Line Element Set (TLE):
1 54045U 22133D   25199.85499231  .00013991  00000-0  47995-3 0  9996
2 54045  34.9928  57.5884 0014042  16.9411 343.1772 15.29234753153888
Source of the keplerian elements: AFSPC